Weather in Sverdlovskoye

Russia / Sverdlovsk Oblast     56°11′38″N   58°20′52″E
temp.,
°C
wind,
m/s
gust,
m/s
humid.,
%
clouds,
%
prec.,
mm/h
press.,
hPa
HPBL,
m
17 april, sat
sat1723:00+3e37833 0.0 1027132
02:00+2e38805 0.0 1026136
05:00+1e35755 0.0 102690
08:00+3ne24655 0.0 1026146
11:00+8nne44502 0.0 1026582
14:00+10n33410 0.0 10241123
17:00+10nnw55345 0.0 10231327
20:00+7nnw58520 0.0 1023225
18 april, sun
sun1823:00+5nnw34645 0.0 102370
02:00+3wnw22696 0.0 102225
05:00+2wnw34775 0.0 102258
08:00+3nw49765 0.0 1022387
11:00+6nnw686458 0.0 10221214
14:00+5nne6761100 0.0 10241098
17:00+5ene7742100 0.1 10261669
20:00+2ene69445 0.0 1029763
19 april, mon
mon1923:000ene611500 0.0 1031620
02:00−1e510480 0.0 1033764
05:00−2e59500 0.0 1034684
08:00−2e68400 0.0 10351073
11:00+1e67280 0.0 10361536
14:00+3e56250 0.0 10351819
17:00+4e55250 0.0 10341837
20:00+2e35380 0.0 1035123
20 april, tue
tue2023:00−1se37460 0.0 1036206
02:00−1se25450 0.0 1037191
05:00−2se11434 0.0 103710
08:000se01350 0.0 1038245
11:00+2w11300 0.0 1037710
14:00+5wnw22280 0.0 1035970
17:00+7nw23285 0.0 10341187
20:00+6n22430 0.0 103333
21 april, wed
wed2123:00+4nw11470 0.0 103410
02:00+2wsw11510 0.0 103410
05:00+1wsw11520 0.0 103410
08:00+3sw11470 0.0 1035100
11:00+7ssw21380 0.0 1034531
14:00+10ssw22310 0.0 1033910
17:00+12sse23295 0.0 1032911
20:00+9sse22415 0.0 103316